This demonstration page uses our WeatherBlox Daily Observations layout. Learn more.

Left ArrowRight Arrow

53.62937, 11.41316

Hourly Observations for May 27, 2016

Temp ( °F °C ) Dew Point ( °F °C ) Humidity (%) Winds ( mph kmh ) Pressure ( in mb ) Visibility ( mi km ) Precip ( " mm )
6:20 am 06:20 Mostly Cloudy with Mist and Fog 55 13 55 13 100 100 W 2 4 30.03 1017 3 5 N/A
6:50 am 06:50 Mostly Cloudy with Mist and Fog 57 14 55 13 94 94 VRB 1 2 30.03 1017 3 5 N/A
7:20 am 07:20 Mostly Cloudy 57 14 55 13 94 94 SSW 3 6 30.03 1017 4 6 N/A
7:50 am 07:50 Mostly Cloudy 57 14 57 14 100 100 SSW 3 6 30.03 1017 5 8 N/A
8:20 am 08:20 Mostly Cloudy 57 14 55 13 94 94 SW 3 6 30.03 1017 30 48 N/A
8:50 am 08:50 Mostly Cloudy 59 15 57 14 94 94 SW 6 9 30.03 1017 30 48 N/A
9:20 am 09:20 Mostly Cloudy 59 15 55 13 88 88 SW 5 7 30.03 1017 30 48 N/A
9:50 am 09:50 Mostly Cloudy 59 15 55 13 88 88 W 3 6 30.03 1017 30 48 N/A
10:20 am 10:20 Mostly Cloudy 61 16 57 14 88 88 W 3 6 30.03 1017 30 48 N/A
10:50 am 10:50 Mostly Cloudy 61 16 57 14 88 88 NW 3 6 30.03 1017 30 48 N/A
11:20 am 11:20 Mostly Cloudy 63 17 57 14 83 83 NNW 6 9 30.03 1017 30 48 N/A
11:50 am 11:50 Mostly Cloudy 63 17 55 13 77 77 N 6 9 30.03 1017 30 48 N/A
12:20 pm 12:20 Mostly Cloudy 61 16 57 14 88 88 N 6 9 30.03 1017 30 48 N/A
12:50 pm 12:50 Mostly Cloudy 61 16 57 14 88 88 NNE 6 9 30.03 1017 30 48 N/A
1:20 pm 13:20 Mostly Cloudy 61 16 57 14 88 88 NE 7 11 30.03 1017 30 48 N/A
1:50 pm 13:50 Mostly Cloudy 64 18 57 14 78 78 NNE 3 6 30.03 1017 30 48 N/A
2:20 pm 14:20 Mostly Cloudy 64 18 55 13 73 73 VRB 3 6 30.03 1017 30 48 N/A
2:50 pm 14:50 Mostly Cloudy 66 19 55 13 68 68 VRB 3 6 30.03 1017 30 48 N/A
3:20 pm 15:20 Mostly Cloudy 66 19 55 13 68 68 VRB 5 7 30.03 1017 30 48 N/A
3:50 pm 15:50 Mostly Cloudy 64 18 55 13 73 73 NNE 6 9 30.03 1017 30 48 N/A
4:20 pm 16:20 Mostly Cloudy 66 19 55 13 68 68 NNE 3 6 30.03 1017 30 48 N/A
4:50 pm 16:50 Partly Cloudy 66 19 57 14 73 73 NE 6 9 30.03 1017 30 48 N/A
5:20 pm 17:20 Mostly Cloudy 66 19 57 14 73 73 NE 7 11 30.03 1017 30 48 N/A
5:50 pm 17:50 Mostly Sunny 66 19 55 13 68 68 NNE 6 9 30.03 1017 30 48 N/A
6:20 pm 18:20 Partly Cloudy 66 19 55 13 68 68 NNE 6 9 30.03 1017 30 48 N/A
6:50 pm 18:50 Mostly Sunny 66 19 55 13 68 68 NNE 7 11 30.03 1017 7 11 N/A

Powered by AerisWeather